Wind_Speed
24 24 25 24 22 22 22 22 25 27 30 29 25 21 17 15 12 10 11 18 20 14 27 25 18 21 20 13 14 25 25 25 21 20 20 20 17 17 13 11 9 9 10 18 20 21 27
24 25 24 24 23 21 20 22 25 27 29 29 26 23 18 15 11 7 6 9 21 22 19 32 15 14 23 15 24 26 26 29 28 27 27 23 22 21 22 17 13 14 18 21 18 24 20
23 24 24 24 24 23 20 20 23 27 29 31 27 26 19 14 11 4 3 6 14 22 15 27 20 15 18 20 25 25 32 30 28 24 26 22 22 18 14 11 17 13 12 14 15 20 15
22 22 23 24 24 24 22 20 22 25 27 30 28 29 22 14 14 6 8 9 5 20 18 13 28 3 8 25 23 29 37 35 19 17 16 15 12 20 21 20 19 13 10 4 4 10 7
20 21 23 23 24 24 23 21 21 24 26 27 30 29 27 13 20 10 7 5 2 10 17 8 34 4 10 34 32 34 42 30 21 18 8 5 5 13 12 9 5 6 6 11 10 11 8
20 21 22 23 24 24 24 23 19 21 24 27 29 30 30 15 21 10 8 6 2 6 16 7 21 6 29 34 29 36 43 19 24 12 3 1 4 4 6 4 5 6 5 6 5 8 14
20 20 21 22 23 24 25 24 21 19 23 25 27 31 30 19 21 10 10 6 4 2 18 10 11 13 21 30 18 35 41 16 23 13 8 3 6 7 9 5 7 9 6 6 10 8 6
21 20 20 21 22 23 24 24 23 19 19 25 26 30 29 24 18 10 16 6 5 2 0 8 12 16 24 27 27 39 42 16 17 13 16 6 9 14 12 11 8 8 6 8 9 3 7
22 22 21 20 22 23 25 25 24 21 17 22 26 26 30 24 18 16 17 12 3 3 4 5 17 17 29 26 15 33 37 14 10 12 13 8 13 13 13 10 6 5 3 9 11 12 5
24 23 22 22 22 23 24 25 25 23 17 17 24 26 30 22 10 16 10 10 3 4 2 8 11 12 25 22 14 26 33 7 9 9 9 4 14 12 14 5 8 4 8 11 11 2 2
26 25 23 22 22 23 24 25 26 24 19 14 24 26 27 24 14 17 13 7 5 3 5 13 6 11 40 19 17 23 34 7 4 10 0 6 9 9 11 8 6 6 13 10 10 3 6
26 27 25 24 23 23 24 25 26 26 22 12 17 21 20 26 19 15 11 9 3 0 2 7 10 14 20 19 15 15 26 24 9 6 9 4 10 2 8 10 5 6 6 5 4 2 3
26 28 28 26 25 24 24 25 26 27 25 14 8 23 24 28 22 12 15 6 2 6 9 11 10 13 17 12 10 16 19 20 15 9 10 7 7 4 16 8 6 9 2 1 2 1 4
25 28 29 27 26 26 26 26 26 27 26 17 7 11 23 21 16 16 13 0 9 3 4 7 8 22 6 13 6 14 12 12 13 12 4 7 7 11 13 3 9 8 3 2 2 4 1
24 28 30 29 28 28 28 27 27 28 27 17 8 5 26 20 12 17 6 7 2 3 5 7 17 5 6 11 11 10 14 9 8 17 6 8 6 6 11 2 13 8 4 1 4 4 4
23 25 29 31 31 30 29 29 29 28 28 17 9 5 18 16 14 8 7 5 0 1 6 5 6 5 6 12 10 12 13 8 11 17 14 5 6 4 5 9 11 2 4 2 2 5 3
21 23 26 29 31 32 33 31 30 29 28 17 7 2 14 10 12 14 4 3 1 1 3 3 5 5 5 6 7 6 7 3 12 15 12 4 1 8 4 7 10 9 5 3 1 2 3
20 21 24 28 30 32 33 34 32 30 29 19 6 2 13 8 5 6 2 2 1 1 3 3 3 3 3 5 4 5 5 4 16 17 8 5 2 4 3 5 7 9 2 4 3 5 1
19 20 22 26 29 32 33 33 34 31 29 20 4 4 8 11 4 3 4 4 3 2 1 2 2 2 2 3 3 3 4 4 13 10 7 7 4 5 7 3 5 4 12 6 2 1 3
17 20 22 24 26 29 32 35 34 31 26 14 5 3 6 10 6 3 3 2 2 4 3 1 3 6 4 3 6 5 5 2 12 11 14 4 3 2 3 6 3 7 10 8 5 4 5
17 18 20 23 26 27 30 33 34 31 23 12 8 4 3 4 5 5 2 1 4 2 3 3 3 6 3 3 4 2 4 6 4 11 8 4 2 3 8 8 5 7 5 8 6 3 3
15 18 19 22 24 26 29 31 33 33 26 21 5 6 5 5 6 5 3 3 2 3 4 3 3 5 5 5 7 4 2 2 3 7 5 4 2 5 4 8 5 6 1 5 3 4 4
15 17 20 21 21 23 26 28 31 33 32 17 16 10 2 2 2 2 1 1 2 2 6 5 4 2 3 10 16 16 14 14 12 1 3 2 3 4 4 3 2 4 5 3 4 4 2
16 18 20 22 20 21 24 25 27 28 30 24 22 11 4 2 1 2 1 3 4 6 4 3 5 3 3 10 16 13 13 14 13 10 11 2 1 1 4 6 3 5 6 5 7 7 6
17 18 22 23 20 20 22 23 24 25 24 24 23 16 6 3 4 5 5 6 13 10 6 7 7 8 12 8 3 4 2 2 6 7 5 6 0 3 1 2 5 4 4 3 4 5 7
17 18 22 21 21 20 19 21 23 24 24 23 21 21 10 4 3 6 5 3 2 3 2 4 6 9 4 2 1 2 3 3 2 2 8 5 3 3 3 1 4 5 3 5 5 3 9
18 18 18 20 20 22 18 20 21 23 24 24 20 22 16 6 6 6 5 3 3 3 3 2 2 3 1 2 2 1 3 3 2 2 4 2 2 4 4 3 7 4 9 9 4 5 7
19 19 19 20 22 19 18 18 20 21 23 22 21 22 19 7 18 8 8 9 8 4 2 4 4 1 2 1 1 1 2 2 1 4 4 4 3 3 1 1 7 14 7 6 4 6 5
22 22 20 19 22 23 21 20 22 18 21 22 21 22 22 15 13 25 22 19 17 17 9 3 2 2 1 0 1 1 3 2 2 4 2 3 6 3 6 5 2 27 4 14 7 9 11
Wind_Direction
42 41 40 38 36 36 35 31 25 23 24 22 21 17 21 31 41 53 58 45 32 17 23 21 46 36 20 56 358 342 331 328 324 314 307 303 293 289 278 277 279 253 285 317 314 296 268
39 37 36 35 33 32 31 29 27 23 22 21 18 16 21 26 33 54 85 17 26 28 27 29 31 17 27 43 343 336 335 327 315 305 295 283 272 274 277 276 280 281 270 291 303 285 279
41 36 31 31 29 28 26 25 25 24 20 19 19 15 17 22 17 30 346 354 21 27 24 30 15 19 32 13 346 345 338 328 318 302 292 287 264 262 269 264 257 274 292 292 266 268 230
40 37 33 29 27 25 24 23 23 20 16 16 17 15 11 16 9 349 319 313 21 19 6 16 13 3 34 352 352 350 345 339 330 318 288 296 256 246 251 263 275 287 283 281 291 203 217
36 34 31 28 25 23 22 22 20 18 17 14 14 12 9 8 7 6 349 335 284 348 4 31 14 32 33 349 2 348 351 337 327 322 344 277 250 242 241 228 274 253 265 286 290 224 210
32 30 28 26 23 21 19 18 17 15 14 13 12 10 9 10 13 25 5 24 45 349 13 357 7 10 350 351 345 347 352 348 330 332 114 181 226 237 229 177 221 220 228 256 298 342 234
27 27 25 22 22 20 18 16 13 13 12 10 10 10 7 9 15 35 8 18 358 102 36 55 9 21 345 344 349 356 354 357 359 20 4 89 42 22 327 309 313 316 280 275 291 284 306
22 22 21 20 19 18 16 15 12 6 9 11 9 9 7 9 17 40 37 74 76 115 311 45 32 8 352 353 355 359 357 15 359 15 16 26 23 337 328 323 316 296 315 296 278 279 201
24 18 16 18 17 16 14 12 10 6 -0 6 8 8 8 5 15 22 34 47 84 104 266 32 26 13 353 352 -0 356 3 347 12 357 2 59 1 341 341 309 301 283 250 283 293 319 261
22 17 15 14 14 14 12 10 7 5 359 2 6 7 9 9 16 12 347 12 15 112 275 9 9 4 347 359 357 356 6 28 17 335 3 338 354 351 343 59 16 288 349 282 294 295 270
20 17 14 14 13 12 10 6 5 4 0 2 11 9 10 14 22 12 342 343 4 100 48 340 352 345 338 27 337 1 9 38 4 332 314 13 322 345 1 338 320 254 337 297 283 225 307
21 18 15 13 13 11 8 5 2 2 360 350 7 11 8 19 14 359 4 339 27 326 0 337 331 336 333 10 357 352 26 35 35 320 353 139 33 81 346 334 39 353 335 291 252 189 268
19 17 16 12 9 11 9 5 1 360 359 349 347 16 11 10 9 2 359 14 352 54 351 339 331 328 315 353 339 4 23 34 27 356 353 329 38 0 15 358 360 356 220 59 140 44 222
16 15 14 15 11 9 9 5 0 357 357 354 344 2 17 9 13 6 358 116 58 32 312 348 314 311 6 8 335 349 355 22 35 14 307 356 343 2 353 69 323 296 320 32 181 169 168
17 15 15 15 14 12 10 6 1 357 357 358 355 353 15 5 26 19 26 47 50 352 349 316 306 342 329 7 340 350 3 26 18 6 15 354 302 323 19 4 11 328 13 34 282 293 83
18 18 18 20 17 14 14 9 3 359 359 1 7 22 5 12 30 46 55 100 152 265 329 307 347 7 322 338 356 352 0 40 360 358 346 325 296 310 47 355 8 33 282 9 311 16 119
18 18 17 17 19 17 12 11 7 4 1 4 23 42 360 11 42 46 57 75 301 312 334 311 340 307 329 332 323 312 340 342 12 346 354 335 168 301 30 15 30 5 14 337 180 18 353
13 15 14 15 14 17 16 9 8 7 6 10 45 5 357 4 49 64 57 354 259 266 210 251 251 308 313 308 307 318 327 358 2 357 352 337 283 302 209 243 37 69 348 345 14 330 16
11 11 11 9 9 12 16 16 11 8 8 9 27 341 13 27 42 52 158 188 228 269 305 334 290 92 297 268 331 341 317 316 10 14 9 322 337 321 340 334 8 55 9 351 266 286 347
9 7 8 8 7 12 14 13 14 11 11 17 33 4 18 39 83 349 3 63 281 211 261 256 267 283 323 293 182 266 295 342 346 8 9 340 284 126 196 234 266 333 2 10 10 54 299
6 3 4 6 8 14 15 14 13 15 17 26 32 45 3 330 29 6 137 135 292 307 226 236 247 227 115 300 303 276 357 325 333 5 10 76 300 345 276 284 276 286 6 6 33 287 78
349 356 359 359 3 9 13 15 15 15 20 36 38 4 335 302 319 302 163 205 291 328 189 211 216 320 152 198 194 274 59 225 258 334 359 355 285 328 276 230 220 256 36 354 35 338 341
334 339 345 350 353 359 5 9 11 16 18 33 22 4 352 274 291 340 345 321 271 46 245 236 252 333 211 239 261 269 274 263 265 276 301 2 357 5 280 24 315 311 210 205 246 192 203
324 332 333 333 339 346 353 1 6 13 16 23 24 16 360 295 147 243 250 285 266 272 233 262 263 166 258 298 304 268 259 257 255 249 230 303 4 183 271 322 360 214 173 182 206 230 216
314 323 327 330 323 332 341 348 358 2 10 11 19 22 346 282 317 308 293 269 295 271 241 246 255 245 291 322 315 316 232 238 220 222 142 132 258 310 68 271 282 347 189 175 159 277 173
302 314 320 331 324 319 326 336 349 354 358 1 6 9 4 295 229 289 291 275 276 318 234 234 259 279 298 267 291 313 296 314 290 251 94 101 100 120 350 14 244 224 180 152 117 292 181
294 302 313 320 331 324 314 327 339 345 347 354 356 360 5 298 280 292 257 257 258 268 236 232 317 319 290 287 265 255 282 102 284 259 224 203 195 203 247 239 288 207 147 154 68 238 182
285 291 303 308 318 325 310 316 323 331 337 343 348 352 354 306 297 272 276 259 270 241 213 328 341 299 279 324 114 249 244 224 332 235 193 182 166 226 75 27 285 149 127 164 204 187 229
283 286 295 300 308 321 305 309 315 316 324 333 339 343 339 318 288 298 287 273 261 252 249 255 224 291 294 352 300 336 276 164 217 279 1 285 194 208 179 226 132 186 203 215 236 270 278
Height
1553 1550 1548 1545 1542 1539 1537 1534 1531 1528 1524 1520 1517 1514 1511 1508 1507 1505 1504 1503 1500 1496 1494 1488 1484 1483 1481 1481 1486 1482 1478 1475 1471 1469 1466 1465 1464 1462 1459 1455 1453 1454 1454 1452 1449 1447 1444
1556 1553 1551 1548 1545 1542 1538 1536 1533 1529 1526 1522 1518 1514 1511 1508 1507 1505 1505 1503 1501 1497 1494 1490 1487 1486 1483 1485 1486 1481 1476 1471 1468 1464 1460 1461 1460 1460 1457 1455 1454 1451 1453 1449 1447 1444 1446
1558 1556 1554 1550 1547 1544 1540 1537 1534 1531 1527 1523 1519 1514 1511 1509 1506 1505 1504 1503 1500 1496 1494 1491 1490 1488 1486 1491 1485 1479 1475 1468 1461 1457 1453 1453 1455 1458 1454 1451 1449 1449 1448 1445 1445 1443 1445
1560 1557 1555 1552 1549 1546 1543 1539 1536 1532 1528 1524 1520 1515 1511 1508 1505 1503 1502 1501 1500 1497 1495 1493 1489 1488 1488 1488 1483 1477 1469 1461 1457 1453 1449 1448 1448 1450 1452 1451 1448 1449 1446 1448 1433 1438 1436
1562 1560 1557 1554 1551 1547 1544 1540 1537 1533 1529 1525 1521 1516 1512 1508 1504 1501 1500 1499 1499 1497 1494 1492 1491 1487 1490 1485 1478 1475 1469 1458 1453 1449 1447 1446 1448 1448 1447 1450 1455 1449 1454 1443 1431 1427 1429
1565 1562 1559 1555 1552 1548 1545 1541 1538 1534 1531 1527 1522 1517 1512 1508 1504 1500 1500 1498 1498 1498 1496 1491 1492 1490 1487 1486 1480 1476 1468 1458 1452 1448 1447 1447 1446 1445 1445 1449 1462 1454 1453 1436 1439 1432 1425
1567 1563 1560 1557 1553 1550 1546 1543 1539 1535 1532 1528 1523 1518 1512 1508 1505 1501 1500 1499 1501 1502 1498 1501 1501 1500 1497 1490 1484 1475 1465 1458 1454 1449 1449 1447 1453 1455 1453 1449 1450 1445 1442 1445 1435 1433 1438
1568 1565 1561 1558 1555 1551 1547 1543 1539 1536 1533 1529 1524 1519 1513 1509 1506 1502 1500 1499 1501 1504 1504 1503 1501 1499 1496 1490 1481 1472 1465 1462 1458 1455 1455 1455 1461 1455 1448 1444 1444 1444 1447 1444 1429 1431 1433
1570 1567 1563 1559 1555 1552 1548 1544 1540 1536 1533 1530 1525 1520 1515 1509 1506 1503 1502 1502 1503 1503 1504 1501 1499 1498 1491 1489 1485 1477 1470 1466 1464 1461 1460 1460 1463 1454 1451 1449 1449 1447 1451 1442 1435 1429 1425
1572 1568 1564 1561 1556 1553 1549 1545 1541 1537 1533 1530 1526 1521 1516 1511 1508 1506 1504 1504 1503 1503 1503 1504 1501 1502 1496 1490 1488 1483 1476 1471 1470 1467 1463 1461 1461 1457 1453 1451 1449 1454 1442 1435 1434 1439 1429
1574 1569 1565 1561 1557 1553 1550 1546 1542 1537 1533 1530 1527 1522 1518 1511 1510 1508 1507 1504 1504 1504 1511 1508 1505 1504 1501 1498 1496 1485 1480 1471 1474 1470 1469 1469 1466 1460 1458 1456 1452 1454 1445 1444 1438 1434 1435
1576 1572 1567 1562 1558 1554 1550 1546 1542 1538 1534 1530 1528 1524 1519 1515 1511 1509 1505 1503 1504 1506 1526 1517 1510 1509 1504 1498 1495 1489 1485 1475 1474 1468 1465 1469 1461 1460 1461 1450 1449 1451 1448 1437 1435 1438 1438
1578 1574 1569 1565 1560 1555 1550 1546 1542 1538 1534 1530 1528 1525 1520 1516 1514 1510 1506 1505 1506 1522 1523 1520 1518 1512 1505 1501 1494 1487 1485 1485 1490 1486 1481 1467 1462 1459 1457 1454 1452 1452 1451 1449 1442 1458 1463
1581 1576 1571 1566 1561 1557 1551 1547 1542 1538 1533 1529 1528 1526 1522 1519 1515 1511 1508 1509 1520 1529 1530 1528 1523 1516 1505 1504 1500 1493 1490 1493 1494 1493 1489 1487 1474 1464 1460 1463 1463 1454 1451 1447 1446 1458 1444
1583 1579 1573 1568 1563 1558 1553 1548 1543 1538 1533 1528 1526 1526 1524 1522 1519 1514 1513 1528 1543 1542 1541 1537 1525 1518 1512 1508 1507 1498 1499 1501 1501 1497 1504 1496 1488 1469 1465 1462 1459 1457 1453 1461 1454 1425 1432
1584 1580 1576 1571 1566 1560 1554 1550 1545 1539 1533 1528 1526 1526 1525 1523 1520 1518 1520 1535 1541 1543 1542 1538 1531 1527 1524 1517 1516 1508 1505 1503 1506 1503 1496 1498 1497 1470 1469 1465 1464 1462 1461 1456 1457 1446 1439
1585 1582 1578 1573 1568 1562 1556 1551 1545 1540 1534 1528 1526 1527 1528 1525 1522 1522 1534 1541 1540 1541 1542 1541 1537 1535 1529 1529 1524 1518 1514 1507 1507 1504 1498 1498 1501 1481 1471 1481 1482 1470 1474 1462 1466 1455 1446
1587 1584 1580 1576 1571 1564 1558 1553 1547 1540 1535 1530 1528 1529 1530 1526 1527 1530 1538 1540 1541 1539 1540 1539 1539 1536 1534 1532 1530 1524 1519 1514 1511 1510 1507 1501 1502 1498 1487 1480 1476 1480 1488 1483 1470 1478 1471
1588 1585 1582 1578 1573 1567 1561 1555 1550 1543 1536 1532 1532 1532 1531 1528 1534 1535 1539 1540 1540 1539 1537 1537 1536 1536 1535 1534 1539 1527 1520 1514 1513 1512 1513 1509 1507 1503 1482 1483 1478 1486 1482 1485 1484 1476 1490
1589 1586 1583 1579 1575 1569 1564 1558 1552 1547 1541 1536 1535 1535 1534 1532 1536 1537 1539 1538 1537 1537 1537 1537 1536 1533 1532 1528 1527 1531 1521 1514 1514 1513 1509 1506 1510 1510 1517 1508 1497 1498 1488 1488 1489 1498 1498
1589 1587 1584 1581 1577 1571 1567 1562 1556 1550 1545 1540 1539 1544 1543 1540 1537 1539 1540 1540 1536 1536 1537 1536 1534 1533 1535 1543 1532 1524 1520 1520 1516 1515 1511 1512 1519 1506 1502 1493 1491 1490 1492 1490 1500 1499 1502
1589 1587 1584 1581 1578 1574 1569 1564 1559 1553 1549 1545 1546 1546 1544 1542 1541 1541 1538 1538 1537 1535 1536 1533 1536 1530 1532 1538 1531 1535 1530 1527 1525 1518 1517 1515 1518 1505 1499 1488 1486 1489 1486 1488 1488 1491 1491
1588 1586 1584 1581 1578 1575 1571 1566 1562 1556 1552 1549 1549 1547 1545 1541 1540 1541 1540 1538 1537 1536 1531 1531 1531 1532 1532 1526 1523 1523 1523 1522 1521 1524 1523 1523 1523 1520 1507 1483 1484 1498 1494 1491 1494 1491 1491
1587 1585 1583 1581 1578 1575 1571 1568 1563 1559 1555 1554 1552 1548 1546 1542 1540 1540 1539 1538 1536 1535 1535 1530 1529 1530 1525 1521 1519 1517 1518 1518 1518 1517 1517 1526 1529 1522 1519 1494 1510 1484 1480 1483 1489 1486 1485
1584 1583 1582 1579 1577 1574 1571 1568 1564 1561 1558 1555 1552 1551 1548 1545 1540 1537 1537 1535 1533 1531 1531 1527 1526 1525 1523 1521 1520 1519 1515 1513 1510 1511 1516 1519 1527 1528 1525 1515 1485 1488 1482 1485 1487 1483 1478
1581 1581 1580 1577 1575 1573 1570 1567 1564 1561 1558 1555 1552 1550 1548 1547 1538 1537 1535 1534 1534 1529 1526 1523 1523 1522 1521 1520 1518 1521 1514 1508 1508 1510 1514 1519 1526 1531 1518 1520 1510 1486 1481 1481 1483 1490 1475
1578 1577 1576 1575 1573 1570 1568 1566 1563 1560 1558 1555 1552 1549 1546 1544 1536 1535 1534 1533 1530 1529 1529 1522 1522 1521 1522 1519 1518 1516 1514 1515 1519 1524 1515 1518 1521 1521 1511 1519 1490 1477 1476 1480 1488 1482 1471
1574 1573 1572 1571 1570 1567 1566 1563 1561 1559 1556 1554 1552 1547 1547 1542 1533 1531 1530 1530 1527 1528 1528 1523 1523 1522 1521 1523 1521 1518 1521 1516 1519 1505 1510 1511 1512 1507 1508 1514 1500 1471 1477 1481 1468 1466 1467
1569 1568 1568 1567 1566 1564 1562 1561 1558 1556 1553 1551 1548 1546 1542 1538 1532 1527 1525 1524 1524 1524 1525 1523 1522 1521 1519 1521 1521 1520 1519 1517 1512 1514 1493 1506 1490 1493 1490 1475 1462 1461 1459 1460 1461 1462 1463